DW2213 Weather Reports


Display with metric or nautical units.
time (UTC)temp
F
wind
direction
speed
MPH
gust
MPH
rain 1hr
in
rain 24hr
in
rain mn
in
humidity
%
barometer
mb
20260904183304 83 323 0.0 3.0 0.00 0.00 0.00 79 1013.4
20260904182804 83 334 0.0 0.0 0.00 0.00 0.00 79 1013.5
20260904182306 84 336 0.0 3.0 0.00 0.00 0.00 78 1013.4
20260904180804 84 334 0.0 1.0 0.00 0.00 0.00 78 1013.3
20260904180304 84 330 0.0 0.0 0.00 0.00 0.00 78 1013.2
20260904175305 85 330 0.0 3.0 0.00 0.00 0.00 79 1013.2
20260904174804 85 345 1.0 3.0 0.00 0.00 0.00 78 1013.2
20260904174303 85 308 2.0 5.0 0.00 0.00 0.00 78 1013.1
20260904173803 85 42 1.0 5.0 0.00 0.00 0.00 78 1013.1
20260904173304 85 6 1.0 6.0 0.00 0.00 0.00 78 1013.1
20260904172305 86 16 2.0 6.0 0.00 0.00 0.00 77 1013.1
20260904171804 86 61 1.0 6.0 0.00 0.00 0.00 76 1013.0
20260904171303 87 340 2.0 5.0 0.00 0.00 0.00 75 1013.0
20260904170804 88 23 1.0 5.0 0.00 0.00 0.00 73 1013.0
20260904165805 88 326 1.0 3.0 0.00 0.00 0.00 72 1012.9
20260904164805 90 355 2.0 6.0 0.00 0.00 0.00 69 1012.9
20260904164305 91 355 1.0 6.0 0.00 0.00 0.00 67 1012.8
20260904163805 92 51 1.0 6.0 0.00 0.00 0.00 63 1012.8
20260904163305 94 11 1.0 5.0 0.00 0.00 0.00 55 1012.8
20260904162804 95 98 0.0 2.0 0.00 0.00 0.00 45 1012.7
20260904162306 96 98 0.0 2.0 0.00 0.00 0.00 42 1012.9
20260904161805 96 98 0.0 2.0 0.00 0.00 0.00 41 1012.9
20260904161304 96 98 0.0 3.0 0.00 0.00 0.00 41 1012.8
20260904160805 96 121 0.0 0.0 0.00 0.00 0.00 41 1012.8
20260904160305 96 121 0.0 1.0 0.00 0.00 0.00 42 1012.8
20260904155804 96 121 0.0 2.0 0.00 0.00 0.00 43 1012.8
20260904154805 95 126 1.0 5.0 0.00 0.00 0.00 44 1012.8
20260904153805 95 138 1.0 2.0 0.00 0.00 0.00 45 1012.8
20260904153305 95 144 1.0 5.0 0.00 0.00 0.00 46 1012.8
20260904152805 95 144 0.0 1.0 0.00 0.00 0.00 48 1012.8
20260904152306 95 147 0.0 2.0 0.00 0.00 0.00 48 1012.9
20260904151805 95 148 0.0 2.0 0.00 0.00 0.00 50 1012.9
20260904151305 95 147 1.0 3.0 0.00 0.00 0.00 50 1012.9
20260904150305 95 138 2.0 3.0 0.00 0.00 0.00 50 1012.7
20260904145805 95 122 1.0 5.0 0.00 0.00 0.00 49 1012.7
20260904145306 95 129 1.0 3.0 0.00 0.00 0.00 49 1012.8
20260904144805 95 130 1.0 3.0 0.00 0.00 0.00 49 1012.8
20260904143805 95 128 1.0 5.0 0.00 0.00 0.00 51 1012.9
20260904143305 95 107 0.0 5.0 0.00 0.00 0.00 52 1012.9
20260904142306 95 129 1.0 7.0 0.00 0.00 0.00 53 1012.9
20260904141805 95 115 1.0 6.0 0.00 0.00 0.00 53 1012.9
20260904141305 96 151 2.0 5.0 0.00 0.00 0.00 51 1012.9
20260904140805 96 134 1.0 5.0 0.00 0.00 0.00 52 1012.9
20260904135805 95 121 1.0 6.0 0.00 0.00 0.00 52 1013.1
20260904135306 96 117 2.0 6.0 0.00 0.00 0.00 52 1013.2
20260904134805 97 64 1.0 3.0 0.00 0.00 0.00 52 1013.2
20260904134305 97 153 0.0 5.0 0.00 0.00 0.00 52 1013.3
20260904133305 96 137 2.0 6.0 0.00 0.00 0.00 52 1013.5
20260904132805 96 144 2.0 6.0 0.00 0.00 0.00 53 1013.6
20260904132306 96 141 2.0 6.0 0.00 0.00 0.00 53 1013.6
20260904131805 96 142 2.0 5.0 0.00 0.00 0.00 55 1013.6
20260904130805 95 120 0.0 5.0 0.00 0.00 0.00 58 1013.8
20260904130305 95 130 1.0 3.0 0.00 0.00 0.00 58 1013.8
20260904125805 94 101 1.0 3.0 0.00 0.00 0.00 59 1013.9
20260904125305 94 114 1.0 3.0 0.00 0.00 0.00 59 1013.9
20260904124804 94 133 1.0 3.0 0.00 0.00 0.00 59 1014.0
20260904124305 94 130 0.0 1.0 0.00 0.00 0.00 60 1014.0
20260904123805 94 132 0.0 2.0 0.00 0.00 0.00 60 1014.1
20260904123305 93 131 0.0 3.0 0.00 0.00 0.00 62 1014.1
20260904122805 93 116 1.0 5.0 0.00 0.00 0.00 62 1014.1
20260904122306 93 136 1.0 3.0 0.00 0.00 0.00 63 1014.2
20260904121305 92 119 1.0 6.0 0.00 0.00 0.00 65 1014.3
20260904120804 92 129 1.0 3.0 0.00 0.00 0.00 65 1014.3
20260904115805 92 95 0.0 6.0 0.00 0.00 0.00 65 1014.5
20260904115306 92 130 0.0 5.0 0.00 0.00 0.00 65 1014.5
20260904114805 91 135 1.0 6.0 0.00 0.00 0.00 67 1014.5
20260904114305 91 116 1.0 3.0 0.00 0.00 0.00 67 1014.6
20260904113804 91 136 1.0 5.0 0.00 0.00 0.00 66 1014.6
20260904113304 90 104 0.0 6.0 0.00 0.00 0.00 67 1014.6
20260904112804 90 134 1.0 6.0 0.00 0.00 0.00 67 1014.6
20260904112306 91 131 1.0 5.0 0.00 0.00 0.00 67 1014.8
20260904111805 90 128 1.0 5.0 0.00 0.00 0.00 67 1014.9
20260904111305 90 131 1.0 6.0 0.00 0.00 0.00 67 1014.9
20260904110805 90 154 0.0 5.0 0.00 0.00 0.00 68 1014.9
20260904110305 90 123 1.0 6.0 0.00 0.00 0.00 68 1015.0
20260904105805 90 131 1.0 5.0 0.00 0.00 0.00 69 1015.1
20260904105306 89 136 1.0 5.0 0.00 0.00 0.00 69 1015.1
20260904104804 89 134 1.0 6.0 0.00 0.00 0.00 69 1015.2
20260904102805 90 146 0.0 1.0 0.00 0.00 0.00 68 1015.4
20260904101805 89 146 0.0 0.0 0.00 0.00 0.00 69 1015.5
20260904101304 89 127 0.0 0.0 0.00 0.00 0.00 68 1015.5
20260904100804 89 140 0.0 0.0 0.00 0.00 0.00 68 1015.4
20260904100306 89 127 0.0 0.0 0.00 0.00 0.00 68 1015.5
20260904094805 88 144 0.0 1.0 0.00 0.00 0.00 68 1015.6
20260904093805 87 134 0.0 1.0 0.00 0.00 0.00 68 1015.6
20260904093304 87 133 0.0 0.0 0.00 0.00 0.00 70 1015.6
20260904092805 87 133 0.0 0.0 0.00 0.00 0.00 69 1015.6
20260904092306 87 132 0.0 1.0 0.00 0.00 0.00 70 1015.6
20260904091805 87 123 0.0 0.0 0.00 0.00 0.00 69 1015.5
20260904091305 87 123 0.0 0.0 0.00 0.00 0.00 69 1015.6
20260904090805 86 123 0.0 0.0 0.00 0.00 0.00 69 1015.6
20260904090304 86 123 0.0 0.0 0.00 0.00 0.00 70 1015.6
20260904085804 86 122 0.0 0.0 0.00 0.00 0.00 73 1015.6
20260904084804 85 122 0.0 0.0 0.00 0.00 0.00 75 1015.5
20260904084305 85 122 0.0 0.0 0.00 0.00 0.00 75 1015.5
20260904083804 85 122 0.0 0.0 0.00 0.00 0.00 76 1015.4
20260904083305 84 121 0.0 0.0 0.00 0.00 0.00 76 1015.5
20260904082804 84 121 0.0 0.0 0.00 0.00 0.00 77 1015.5
20260904081805 83 121 0.0 0.0 0.00 0.00 0.00 78 1015.4
20260904080804 82 121 0.0 0.0 0.00 0.00 0.00 80 1015.3
20260904080304 82 121 0.0 0.0 0.00 0.00 0.00 81 1015.3
20260904075805 81 121 0.0 0.0 0.00 0.00 0.00 81 1015.3
20260904075306 81 121 0.0 0.0 0.00 0.00 0.00 81 1015.3
20260904074804 81 121 0.0 0.0 0.00 0.00 0.00 82 1015.3
20260904074305 81 121 0.0 0.0 0.00 0.00 0.00 83 1015.3
20260904073804 80 121 0.0 0.0 0.00 0.00 0.00 84 1015.3
20260904073304 80 121 0.0 0.0 0.00 0.00 0.00 84 1015.4
20260904072805 80 121 0.0 0.0 0.00 0.00 0.00 85 1015.4
20260904072306 79 121 0.0 0.0 0.00 0.00 0.00 85 1015.4
20260904071804 79 122 0.0 0.0 0.00 0.00 0.00 86 1015.5
20260904071304 78 122 0.0 0.0 0.00 0.00 0.00 87 1015.6
20260904070804 78 122 0.0 0.0 0.00 0.00 0.00 88 1015.6
20260904070305 78 122 0.0 0.0 0.00 0.00 0.00 89 1015.6
20260904065804 77 113 0.0 0.0 0.00 0.00 0.00 89 1015.6
20260904065306 77 110 0.0 0.0 0.00 0.00 0.00 89 1015.6
20260904064305 76 110 0.0 0.0 0.00 0.00 0.00 90 1015.5
20260904063805 76 110 0.0 0.0 0.00 0.00 0.00 90 1015.5
20260904063304 76 110 0.0 0.0 0.00 0.00 0.00 90 1015.5
20260904062804 76 110 0.0 0.0 0.00 0.00 0.00 90 1015.5
20260904062306 76 110 0.0 0.0 0.00 0.00 0.00 90 1015.5
20260904061805 76 110 0.0 0.0 0.00 0.00 0.00 90 1015.5
20260904061305 76 110 0.0 0.0 0.00 0.00 0.00 90 1015.5
20260904060805 76 110 0.0 0.0 0.00 0.00 0.00 90 1015.5
20260904060304 76 110 0.0 0.0 0.00 0.00 0.00 90 1015.4
20260904053805 76 110 0.0 0.0 0.00 0.00 0.00 90 1015.3
20260904053305 76 110 0.0 0.0 0.00 0.00 0.00 90 1015.3
20260904052307 76 110 0.0 0.0 0.00 0.00 0.00 90 1015.3
20260904051804 76 110 0.0 0.0 0.00 0.00 0.00 91 1015.2
20260904051305 76 110 0.0 0.0 0.00 0.00 0.00 91 1015.3
20260904050804 76 110 0.0 0.0 0.00 0.00 0.00 91 1015.3
20260904045804 76 110 0.0 0.0 0.00 0.00 0.00 91 1015.3
20260904045306 76 110 0.0 0.0 0.00 0.00 0.00 91 1015.4
20260904044804 76 110 0.0 0.0 0.00 0.00 0.00 91 1015.4
20260904044305 76 110 0.0 0.0 0.00 0.00 0.00 91 1015.4
20260904043804 76 110 0.0 0.0 0.00 0.00 0.00 91 1015.4
20260904043304 76 110 0.0 0.0 0.00 0.00 0.00 91 1015.4
20260904042804 76 110 0.0 0.0 0.00 0.00 0.00 91 1015.4
20260904041804 76 110 0.0 0.0 0.00 0.00 0.00 91 1015.4
20260904041305 76 110 0.0 0.0 0.00 0.00 0.00 90 1015.4
20260904040304 76 110 0.0 0.0 0.00 0.00 0.00 90 1015.4
20260904035805 76 110 0.0 0.0 0.00 0.00 0.00 90 1015.4
20260904035306 76 110 0.0 0.0 0.00 0.00 0.00 90 1015.4
20260904034805 76 110 0.0 0.0 0.00 0.00 0.00 90 1015.4
20260904034304 76 110 0.0 0.0 0.00 0.00 0.00 90 1015.5
20260904033804 77 110 0.0 0.0 0.00 0.00 0.00 90 1015.5
20260904032804 77 110 0.0 0.0 0.00 0.00 0.00 90 1015.5
20260904032306 77 110 0.0 0.0 0.00 0.00 0.00 89 1015.5
20260904031804 77 110 0.0 0.0 0.00 0.00 0.00 89 1015.5
20260904030804 77 110 0.0 0.0 0.00 0.00 0.00 89 1015.5
20260904030304 77 110 0.0 0.0 0.00 0.00 0.00 89 1015.6
20260904025804 77 109 0.0 0.0 0.00 0.00 0.00 89 1015.7
20260904025306 77 109 0.0 0.0 0.00 0.00 0.00 89 1015.8
20260904024804 77 109 0.0 0.0 0.00 0.00 0.00 88 1015.8
20260904024305 78 109 0.0 0.0 0.00 0.00 0.00 88 1015.8
20260904023804 78 109 0.0 0.0 0.00 0.00 0.00 88 1015.8
20260904023304 78 109 0.0 0.0 0.00 0.00 0.00 88 1015.8
20260904022804 78 109 0.0 0.0 0.00 0.00 0.00 88 1015.8
20260904021304 78 109 0.0 0.0 0.00 0.00 0.00 89 1015.8
20260904020804 78 109 0.0 0.0 0.00 0.00 0.00 89 1015.8
20260904020305 78 109 0.0 0.0 0.00 0.00 0.00 89 1015.8
20260904015804 78 109 0.0 0.0 0.00 0.00 0.00 88 1015.8
20260904015306 78 109 0.0 0.0 0.00 0.00 0.00 89 1015.9
20260904014804 78 108 0.0 0.0 0.00 0.00 0.00 89 1015.9
20260904014304 78 108 0.0 0.0 0.00 0.00 0.00 89 1015.9
20260904013805 78 108 0.0 0.0 0.00 0.00 0.00 89 1016.0
20260904012306 78 108 0.0 0.0 0.00 0.00 0.00 89 1016.0
20260904011804 78 109 0.0 0.0 0.00 0.00 0.00 89 1016.0
20260904011304 78 108 0.0 0.0 0.00 0.00 0.00 89 1016.1
20260904010804 78 108 0.0 0.0 0.00 0.00 0.00 89 1016.2
20260904010304 78 108 0.0 0.0 0.00 0.00 0.00 89 1016.3
20260904005804 78 108 0.0 0.0 0.00 0.00 0.00 89 1016.3
20260904005306 78 108 0.0 0.0 0.00 0.00 0.00 89 1016.4
20260904004804 78 108 0.0 0.0 0.00 0.00 0.00 89 1016.4
20260904004304 78 108 0.0 0.0 0.00 0.00 0.00 89 1016.5
20260904003804 78 108 0.0 0.0 0.00 0.00 0.00 89 1016.5
20260904003304 78 108 0.0 0.0 0.00 0.00 0.00 90 1016.5
20260904002804 78 108 0.0 0.0 0.00 0.00 0.00 90 1016.5
20260904002306 78 108 0.0 0.0 0.00 0.00 0.00 90 1016.5
20260904001804 78 108 0.0 0.0 0.00 0.00 0.00 90 1016.6
20260904001304 78 108 0.0 0.0 0.00 0.00 0.00 90 1016.6
20260904000804 78 108 0.0 0.0 0.00 0.00 0.00 90 1016.6
20260904000304 78 108 0.0 0.0 0.00 0.00 0.00 90 1016.6
20260903235305 78 108 0.0 0.0 0.00 0.00 0.00 90 1016.6
20260903234805 78 108 0.0 0.0 0.00 0.00 0.00 90 1016.7
20260903233804 79 108 0.0 0.0 0.00 0.00 0.00 89 1016.8
20260903232804 79 108 0.0 0.0 0.00 0.00 0.00 89 1016.9
20260903232306 79 108 0.0 0.0 0.00 0.00 0.00 89 1016.8
20260903231804 79 108 0.0 0.0 0.00 0.00 0.00 89 1016.9
20260903231304 79 108 0.0 0.0 0.00 0.00 0.00 89 1016.9
20260903230304 80 108 0.0 0.0 0.00 0.00 0.00 89 1016.9
20260903225306 80 108 0.0 0.0 0.00 0.00 0.00 89 1016.9
20260903224804 80 108 0.0 0.0 0.00 0.00 0.00 89 1016.9
20260903223804 80 108 0.0 0.0 0.00 0.00 0.00 88 1016.9
20260903223304 80 108 0.0 0.0 0.00 0.00 0.00 89 1016.8
20260903222306 80 108 0.0 0.0 0.00 0.00 0.00 88 1016.9
20260903221804 80 108 0.0 0.0 0.00 0.00 0.00 88 1017.0
20260903221304 81 108 0.0 0.0 0.00 0.00 0.00 88 1017.1
20260903220816 81 108 0.0 0.0 0.00 0.00 0.00 88 1017.1
20260903220305 81 108 0.0 0.0 0.00 0.00 0.00 88 1017.2
20260903215804 81 108 0.0 0.0 0.00 0.00 0.00 88 1017.2
20260903215306 81 108 0.0 0.0 0.00 0.00 0.00 88 1017.2
20260903214804 81 108 0.0 0.0 0.00 0.00 0.00 88 1017.2
20260903214304 81 108 0.0 0.0 0.00 0.00 0.00 88 1017.2
20260903213804 81 108 0.0 0.0 0.00 0.00 0.00 87 1017.1
20260903213304 81 108 0.0 0.0 0.00 0.00 0.00 87 1017.2
20260903212804 81 108 0.0 0.0 0.00 0.00 0.00 87 1017.2
20260903212306 81 108 0.0 1.0 0.00 0.00 0.00 87 1017.2
20260903211804 81 108 0.0 1.0 0.00 0.00 0.00 87 1017.2
20260903211304 81 109 0.0 0.0 0.00 0.00 0.00 87 1017.3
20260903210804 82 108 0.0 0.0 0.00 0.00 0.00 86 1017.2
20260903205804 82 108 0.0 0.0 0.00 0.00 0.00 86 1017.1
20260903205306 82 109 0.0 0.0 0.00 0.00 0.00 86 1017.2
20260903204804 82 108 0.0 0.0 0.00 0.00 0.00 86 1017.1
20260903204304 82 108 0.0 0.0 0.00 0.00 0.00 86 1017.1
20260903203804 82 108 0.0 0.0 0.00 0.00 0.00 85 1017.1
20260903203304 82 108 0.0 0.0 0.00 0.00 0.00 85 1017.0
20260903202803 82 108 0.0 0.0 0.00 0.00 0.00 85 1017.0
20260903202306 82 108 0.0 0.0 0.00 0.00 0.00 85 1016.9
20260903201804 82 108 0.0 0.0 0.00 0.00 0.00 85 1016.9
20260903201304 82 121 0.0 0.0 0.00 0.00 0.00 85 1016.8
20260903200304 82 121 0.0 1.0 0.00 0.00 0.00 85 1016.7
20260903195804 82 121 0.0 0.0 0.00 0.00 0.00 85 1016.7
20260903195306 82 121 0.0 0.0 0.00 0.00 0.00 85 1016.7
20260903194804 82 121 0.0 0.0 0.00 0.00 0.00 84 1016.6
20260903194304 82 121 0.0 1.0 0.00 0.00 0.00 84 1016.5
20260903193804 82 121 0.0 1.0 0.00 0.00 0.00 84 1016.4
20260903193303 82 121 0.0 1.0 0.00 0.00 0.00 84 1016.4
20260903192804 82 121 0.0 1.0 0.00 0.00 0.00 84 1016.3
20260903192306 82 121 0.0 2.0 0.00 0.00 0.00 84 1016.2
20260903191803 82 121 0.0 0.0 0.00 0.00 0.00 84 1016.1
20260903191304 82 121 0.0 2.0 0.00 0.00 0.00 84 1016.0
20260903190303 83 121 0.0 0.0 0.00 0.00 0.00 83 1015.9
20260903185804 83 121 0.0 1.0 0.00 0.00 0.00 83 1015.8
20260903185306 83 121 0.0 2.0 0.00 0.00 0.00 83 1015.7
20260903184804 83 118 0.0 2.0 0.00 0.00 0.00 83 1015.6